This is the latest recevied weather packets stored in our database for station/object XE2B-20. If no packets are shown the sender has not sent any weather packets the latest 10 day(s).
| Time | Temp. | Humidity | Pressure | Rain* | Wind** | Luminosity | Snow |
|---|---|---|---|---|---|---|---|
| 1777466492 | 16.11° C | 23% | 806.5 hPa | - | - | - | - |
| 1777464994 | 16.67° C | 22% | 806.4 hPa | - | - | - | - |
| 1777463496 | 17.22° C | 22% | 806.3 hPa | - | - | - | - |
| 1777461997 | 17.22° C | 22% | 805.8 hPa | - | - | - | - |
| 1777460498 | 16.67° C | 22% | 805.6 hPa | - | - | - | - |
| 1777459001 | 17.22° C | 22% | 805.8 hPa | - | - | - | - |
| 1777457502 | 17.78° C | 21% | 805.8 hPa | - | - | - | - |
| 1777456004 | 18.89° C | 20% | 805.5 hPa | - | - | - | - |
| 1777454506 | 18.89° C | 20% | 805.6 hPa | - | - | - | - |
| 1777453009 | 20.56° C | 19% | 805.7 hPa | - | - | - | - |
| 1777451510 | 21.11° C | 19% | 805.8 hPa | - | - | - | - |
| 1777450012 | 21.11° C | 18% | 806 hPa | - | - | - | - |
| 1777448514 | 22.78° C | 18% | 806.1 hPa | - | - | - | - |
| 1777447015 | 22.78° C | 18% | 806.1 hPa | - | - | - | - |
| 1777445517 | 22.22° C | 18% | 806.4 hPa | - | - | - | - |
| 1777444019 | 22.78° C | 18% | 806.4 hPa | - | - | - | - |
| 1777442521 | 23.33° C | 18% | 806.5 hPa | - | - | - | - |
| 1777441022 | 23.33° C | 17% | 806.4 hPa | - | - | - | - |
| 1777439524 | 23.33° C | 17% | 806.6 hPa | - | - | - | - |
| 1777438026 | 23.89° C | 17% | 806.8 hPa | - | - | - | - |
| 1777436527 | 26.11° C | 16% | 805.7 hPa | - | - | - | - |
| 1777435027 | 26.67° C | 15% | 805.4 hPa | - | - | - | - |
| 1777433529 | 26.67° C | 16% | 805.3 hPa | - | - | - | - |
| 1777432031 | 27.22° C | 16% | 805 hPa | - | - | - | - |
| 1777430534 | 26.67° C | 16% | 804.8 hPa | - | - | - | - |
* Rain since midnight (hover to see other rain measurements)
** Current wind speed in m/s (hover to see current wind gust speed)